TimeCDT,TemperatureF,Dew PointF,Humidity,Sea Level PressureIn,VisibilityMPH,Wind Direction,Wind SpeedMPH,Gust SpeedMPH,PrecipitationIn,Events,Conditions,WindDirDegrees,DateUTC
12:53 AM,75.9,72.0,87,30.04,10.0,West,3.5,-,N/A,,Clear,260,2013-05-24 05:53:00
1:53 AM,75.0,72.0,90,30.05,10.0,West,4.6,-,N/A,,Clear,270,2013-05-24 06:53:00
2:53 AM,75.0,72.0,90,30.05,10.0,WNW,3.5,-,N/A,,Clear,290,2013-05-24 07:53:00
3:21 AM,73.4,71.6,94,30.05,10.0,Calm,Calm,-,N/A,,Clear,0,2013-05-24 08:21:00
3:53 AM,73.0,71.1,93,30.05,10.0,Calm,Calm,-,N/A,,Clear,0,2013-05-24 08:53:00
6:53 AM,73.9,69.1,85,30.10,10.0,North,5.8,-,N/A,,Partly Cloudy,350,2013-05-24 11:53:00
7:53 AM,78.1,66.0,66,30.13,10.0,North,8.1,-,N/A,,Partly Cloudy,10,2013-05-24 12:53:00
8:53 AM,78.1,64.9,64,30.14,10.0,North,8.1,-,N/A,,Clear,10,2013-05-24 13:53:00
9:53 AM,80.1,64.9,60,30.15,10.0,NNE,8.1,-,N/A,,Scattered Clouds,30,2013-05-24 14:53:00
10:53 AM,82.9,64.0,53,30.16,10.0,North,10.4,17.3,N/A,,Clear,10,2013-05-24 15:53:00
11:53 AM,84.0,64.9,53,30.17,10.0,North,8.1,-,N/A,,Scattered Clouds,10,2013-05-24 16:53:00
12:53 PM,86.0,64.0,48,30.15,10.0,NNE,9.2,-,N/A,,Partly Cloudy,30,2013-05-24 17:53:00
1:53 PM,84.9,66.0,53,30.14,10.0,ENE,8.1,-,N/A,,Scattered Clouds,60,2013-05-24 18:53:00
2:53 PM,84.0,64.9,53,30.14,10.0,NE,9.2,-,N/A,,Mostly Cloudy,40,2013-05-24 19:53:00
3:53 PM,87.1,64.9,48,30.13,10.0,NNE,10.4,17.3,N/A,,Mostly Cloudy,30,2013-05-24 20:53:00
4:53 PM,87.1,59.0,39,30.11,10.0,North,8.1,-,N/A,,Partly Cloudy,350,2013-05-24 21:53:00
5:53 PM,84.0,60.1,44,30.10,10.0,NNE,13.8,-,N/A,,Clear,30,2013-05-24 22:53:00
6:53 PM,82.9,59.0,44,30.11,10.0,NNE,12.7,-,N/A,,Clear,20,2013-05-24 23:53:00
7:53 PM,80.1,57.0,45,30.13,10.0,North,9.2,-,N/A,,Clear,360,2013-05-25 00:53:00
8:53 PM,78.1,57.0,48,30.15,10.0,North,8.1,-,N/A,,Clear,360,2013-05-25 01:53:00
9:53 PM,75.0,55.0,50,30.17,10.0,North,9.2,-,N/A,,Clear,360,2013-05-25 02:53:00
10:53 PM,73.0,55.9,55,30.18,10.0,North,6.9,-,N/A,,Clear,360,2013-05-25 03:53:00
11:53 PM,72.0,55.9,57,30.18,10.0,North,5.8,-,N/A,,Clear,10,2013-05-25 04:53:00